KM4NDI Weather Reports


Display with metric or nautical units.
time (UTC)temp
F
wind
direction
speed
MPH
gust
MPH
rain 1hr
in
rain 24hr
in
rain mn
in
humidity
%
barometer
mb
20260901122518 69 0.0 0.0 0.00 0.00 0.00 99 1021.7
20260901121521 69 0.0 0.0 0.00 0.00 0.00 99 1021.5
20260901120524 68 0.0 0.0 0.00 0.00 0.00 99 1021.3
20260901115527 68 0.0 0.0 0.00 0.00 0.00 99 1021.2
20260901114550 68 0.0 0.0 0.00 0.00 0.00 99 1021.1
20260901113515 68 0.0 0.0 0.00 0.00 0.00 99 1020.9
20260901112519 68 0.0 0.0 0.00 0.00 0.00 99 1020.9
20260901111522 68 0.0 0.0 0.00 0.00 0.00 99 1020.8
20260901110525 68 0.0 0.0 0.00 0.00 0.00 99 1020.7
20260901105528 69 0.0 0.0 0.00 0.00 0.00 99 1020.6
20260901104531 69 0.0 0.0 0.00 0.00 0.00 99 1020.4
20260901103516 68 0.0 0.0 0.00 0.00 0.00 99 1020.4
20260901102540 69 0.0 0.0 0.00 0.00 0.00 99 1020.4
20260901101522 69 0.0 0.0 0.00 0.00 0.00 99 1020.4
20260901100600 69 0.0 0.0 0.00 0.00 0.00 99 1020.4
20260901095517 69 0.0 0.0 0.00 0.00 0.00 99 1020.4
20260901094532 69 0.0 0.0 0.00 0.00 0.00 99 1020.4
20260901093517 69 0.0 0.0 0.00 0.00 0.00 99 1020.2
20260901092520 69 0.0 0.0 0.00 0.00 0.00 99 1020.2
20260901091523 69 0.0 0.0 0.00 0.00 0.00 99 1020.2
20260901090526 69 0.0 0.0 0.00 0.00 0.00 99 1020.1
20260901085529 70 0.0 0.0 0.00 0.00 0.00 99 1020.1
20260901084515 70 0.0 0.0 0.00 0.00 0.00 99 1019.9
20260901083518 70 0.0 0.0 0.00 0.00 0.00 99 1019.9
20260901082521 70 0.0 0.0 0.00 0.00 0.00 99 1019.9
20260901081524 70 0.0 0.0 0.00 0.00 0.00 99 1019.9
20260901080528 70 0.0 0.0 0.00 0.00 0.00 99 1019.9
20260901075530 70 0.0 0.0 0.00 0.00 0.00 99 1019.9
20260901074516 70 0.0 0.0 0.00 0.00 0.00 99 1019.7
20260901073519 70 0.0 0.0 0.00 0.00 0.00 99 1019.7
20260901072522 71 0.0 0.0 0.00 0.00 0.00 99 1019.7
20260901071525 71 0.0 0.0 0.00 0.00 0.00 99 1019.7
20260901070548 71 0.0 0.0 0.00 0.00 0.00 99 1019.7
20260901065545 71 0.0 0.0 0.00 0.00 0.00 99 1019.7
20260901064516 71 0.0 0.0 0.00 0.00 0.00 99 1019.9
20260901063519 71 0.0 0.0 0.00 0.00 0.00 99 1019.9
20260901062517 71 0.0 0.0 0.00 0.00 0.00 99 1019.9
20260901061526 72 0.0 0.0 0.00 0.00 0.00 99 1019.9
20260901060529 72 0.0 0.0 0.00 0.00 0.00 99 1019.9
20260901055532 72 0.0 0.0 0.00 0.00 0.00 99 1019.9
20260901054537 72 0.0 0.0 0.00 0.00 0.00 99 1019.9
20260901053520 72 0.0 0.0 0.00 0.00 0.00 99 1019.9
20260901052523 72 0.0 0.0 0.00 0.00 0.00 99 1020.2
20260901051526 72 0.0 0.0 0.00 0.00 0.00 99 1020.1
20260901050550 72 0.0 0.0 0.00 0.00 0.00 99 1020.1
20260901045535 73 0.0 0.0 0.00 0.00 0.00 99 1020.1
20260901044518 73 0.0 0.0 0.00 0.00 0.00 99 1019.9
20260901043521 73 0.0 0.0 0.00 0.00 0.00 99 1020.1
20260901042524 73 0.0 0.0 0.00 0.00 0.00 99 1020.1
20260901041547 73 0.0 0.0 0.00 0.00 0.00 99 1020.1
20260901040530 73 0.0 0.0 0.00 0.00 0.00 99 1020.2
20260901035515 73 0.0 0.0 0.00 0.00 0.00 99 1020.2
20260901034518 74 0.0 0.0 0.00 0.00 0.00 99 1020.1
20260901033521 74 0.0 0.0 0.00 0.00 0.00 99 1020.2
20260901032525 74 0.0 0.0 0.00 0.00 0.00 99 1020.1
20260901031522 74 0.0 0.0 0.00 0.00 0.00 98 1020.2
20260901030519 74 0.0 0.0 0.00 0.00 0.00 98 1020.2
20260901025516 75 0.0 0.0 0.00 0.00 0.00 98 1020.2
20260901024519 75 0.0 0.0 0.00 0.00 0.00 98 1020.2
20260901023522 75 0.0 0.0 0.00 0.00 0.00 97 1020.2
20260901022525 75 0.0 0.0 0.00 0.00 0.00 97 1020.2
20260901021548 76 0.0 0.0 0.00 0.00 0.00 96 1019.9
20260901020531 76 0.0 0.0 0.00 0.00 0.00 96 1019.8
20260901015537 76 0.0 0.0 0.00 0.00 0.00 95 1019.5
20260901014520 76 0.0 0.0 0.00 0.00 0.00 94 1019.5
20260901013523 77 0.0 0.0 0.00 0.00 0.00 94 1019.5
20260901012526 77 0.0 0.0 0.00 0.00 0.00 93 1019.4
20260901011529 77 0.0 0.0 0.00 0.00 0.00 92 1019.3
20260901010532 78 0.0 0.0 0.00 0.00 0.00 90 1019.2
20260901005537 79 0.0 0.0 0.00 0.00 0.00 89 1019.0
20260901004540 79 0.0 0.0 0.00 0.00 0.00 88 1018.9
20260901003523 80 0.0 0.0 0.00 0.00 0.00 87 1019.0
20260901002527 81 0.0 0.0 0.00 0.00 0.00 83 1018.9
20260901001530 82 0.0 0.0 0.00 0.00 0.00 81 1018.9
20260901000515 83 0.0 0.0 0.00 0.00 0.00 76 1018.9
20260831235558 85 0.0 0.0 0.00 0.00 0.00 74 1018.9
20260831234521 86 0.0 0.0 0.00 0.00 0.00 71 1019.0
20260831233518 87 0.0 0.0 0.00 0.00 0.00 67 1019.0
20260831232535 88 0.0 0.0 0.00 0.00 0.00 65 1019.0
20260831231550 90 0.0 0.0 0.00 0.00 0.00 61 1019.0
20260831230515 90 0.0 0.0 0.00 0.00 0.00 62 1019.0
20260831225518 92 0.0 0.0 0.00 0.00 0.00 58 1019.0
20260831224521 93 0.0 0.0 0.00 0.00 0.00 55 1019.2
20260831223525 95 0.0 0.0 0.00 0.00 0.00 53 1019.2
20260831222548 96 0.0 0.0 0.00 0.00 0.00 52 1019.2
20260831221531 92 0.0 0.0 0.00 0.00 0.00 58 1019.2
20260831220536 92 0.0 0.0 0.00 0.00 0.00 58 1019.3
20260831215519 92 0.0 0.0 0.00 0.00 0.00 59 1019.4
20260831214522 90 0.0 0.0 0.00 0.00 0.00 65 1019.5
20260831213526 93 0.0 0.0 0.00 0.00 0.00 59 1019.5
20260831212528 91 0.0 0.0 0.00 0.00 0.00 60 1019.5
20260831211532 93 0.0 1.0 0.00 0.00 0.00 57 1019.5
20260831210517 94 217 1.0 3.0 0.00 0.00 0.00 53 1019.6
20260831205520 91 0.0 0.0 0.00 0.00 0.00 63 1019.7
20260831204543 92 0.0 0.0 0.00 0.00 0.00 63 1019.7
20260831203526 93 0.0 0.0 0.00 0.00 0.00 61 1019.9
20260831202523 92 293 0.0 3.0 0.00 0.00 0.00 59 1019.9
20260831201520 90 0.0 0.0 0.00 0.00 0.00 65 1020.0
20260831200537 90 0.0 0.0 0.00 0.00 0.00 64 1020.1
20260831195540 91 0.0 0.0 0.00 0.00 0.00 62 1020.2
20260831194544 91 0.0 0.0 0.00 0.00 0.00 59 1020.4
20260831193526 94 235 0.0 3.0 0.00 0.00 0.00 52 1020.4
20260831192530 96 0.0 0.0 0.00 0.00 0.00 51 1020.7
20260831191515 94 0.0 1.0 0.00 0.00 0.00 55 1020.7
20260831190518 92 0.0 0.0 0.00 0.00 0.00 61 1020.7
20260831185601 90 0.0 0.0 0.00 0.00 0.00 64 1020.9
20260831184524 91 0.0 0.0 0.00 0.00 0.00 60 1020.9
20260831183527 95 203 0.0 2.0 0.00 0.00 0.00 49 1021.2
20260831182530 91 0.0 1.0 0.00 0.00 0.00 60 1021.2
20260831181515 91 113 0.0 1.0 0.00 0.00 0.00 62 1021.2
20260831180518 92 0.0 0.0 0.00 0.00 0.00 56 1021.3
20260831175522 94 315 0.0 2.0 0.00 0.00 0.00 55 1021.4
20260831174705 93 270 1.0 3.0 0.00 0.00 0.00 57 1021.6
20260831173528 91 0.0 0.0 0.00 0.00 0.00 63 1021.8
20260831172531 87 0.0 0.0 0.00 0.00 0.00 73 1021.9
20260831171516 88 0.0 0.0 0.00 0.00 0.00 73 1021.9
20260831170539 87 0.0 0.0 0.00 0.00 0.00 70 1021.9
20260831165522 87 0.0 0.0 0.00 0.00 0.00 71 1022.0
20260831164519 90 0.0 0.0 0.00 0.00 0.00 63 1022.1
20260831163517 91 0.0 2.0 0.00 0.00 0.00 63 1022.3
20260831162532 87 0.0 0.0 0.00 0.00 0.00 69 1022.3
20260831161517 89 245 1.0 3.0 0.00 0.00 0.00 63 1022.4
20260831160540 88 270 0.0 2.0 0.00 0.00 0.00 67 1022.4
20260831155523 85 0.0 0.0 0.00 0.00 0.00 75 1022.4
20260831154526 88 0.0 1.0 0.00 0.00 0.00 66 1022.4
20260831153529 85 0.0 0.0 0.00 0.00 0.00 75 1022.5
20260831152532 86 0.0 0.0 0.00 0.00 0.00 72 1022.5
20260831151537 87 0.0 0.0 0.00 0.00 0.00 71 1022.5
20260831150520 88 180 0.0 2.0 0.00 0.00 0.00 67 1022.5
20260831145543 88 0.0 0.0 0.00 0.00 0.00 66 1022.5
20260831144547 86 0.0 0.0 0.00 0.00 0.00 73 1022.6
20260831143550 86 135 0.0 1.0 0.00 0.00 0.00 71 1022.5
20260831142515 85 139 1.0 4.0 0.00 0.00 0.00 74 1022.5
20260831141518 83 203 1.0 3.0 0.00 0.00 0.00 78 1022.5
20260831140521 82 0.0 0.0 0.00 0.00 0.00 81 1022.6
20260831135524 80 0.0 0.0 0.00 0.00 0.00 87 1022.5
20260831134547 78 0.0 0.0 0.00 0.00 0.00 94 1022.5
20260831133524 76 0.0 0.0 0.00 0.00 0.00 96 1022.6
20260831132515 75 0.0 0.0 0.00 0.00 0.00 99 1022.7
20260831131518 74 0.0 0.0 0.00 0.00 0.00 99 1022.6
20260831130536 73 0.0 0.0 0.00 0.00 0.00 99 1022.5